Weather History for Stuart, FL

Change the Weather History Date:

Monday, February 25, 2013

  Actual Average Record
Temperature  
Mean Temperature 75 °F -  
Max Temperature 82 °F 75 °F 77 °F (2014)
Min Temperature 68 °F 53 °F 68 °F (2014)
Cooling Degree Days 10    
Growing Degree Days 25 (Base 50)    
Moisture  
Dew Point 71 °F    
Average Humidity 89    
Maximum Humidity 100    
Minimum Humidity 58    
Precipitation  
Precipitation 0.00 in - - ()
Sea Level Pressure  
Sea Level Pressure 29.88 in    
Wind  
Wind Speed 6 mph (SSE)    
Max Wind Speed 16 mph    
Max Gust Speed 28 mph    
Visibility 7 miles    
Events Rain    
Averages and records for this station are not official NWS values.
T = Trace of Precipitation, MM = Missing Value Source: NWS Daily Summary

Daily Weather History Graph

Daily Weather History Graph

Search for Another Location

Airport:

Trip Planner

Search our weather history database for the weather conditions in past years. The results will help you decide how hot, cold, wet, or windy it might be!

Date:

Astronomy

Feb. 25, 2013 Rise Set
Actual Time 6:48 AM EST 6:19 PM EST
Civil Twilight 6:25 AM EST 6:42 PM EST
Nautical Twilight 5:58 AM EST 7:10 PM EST
Astronomical Twilight 5:31 AM EST 7:37 PM EST
Moon 6:25 PM EST (2/25) 6:21 AM EST (2/25)
Length of Visible Light 12h 17m
Length of Day
11h 30m
Full, 100% of the Moon is Illuminated
Feb 25
Full
Feb 25
Full
Mar 4
Last Quarter
Mar 11
New
Mar 19
First Quarter

Hourly Weather History & Observations

Time (EST) Temp. Heat Index Dew Point Humidity Pressure Visibility Wind Dir Wind Speed Gust Speed Precip Events Conditions
12:15 AM 75.2 °F - 73.4 °F 94% 29.92 in 10.0 mi NNE 4.6 mph - N/A   Scattered Clouds
12:35 AM 73.4 °F - 71.6 °F 94% 29.92 in 10.0 mi NE 5.8 mph - N/A   Scattered Clouds
12:55 AM 73.4 °F - 71.6 °F 94% 29.92 in 10.0 mi ENE 5.8 mph - N/A   Clear
1:15 AM 73.4 °F - 71.6 °F 94% 29.91 in 10.0 mi ENE 4.6 mph - N/A   Clear
1:35 AM 73.4 °F - 71.6 °F 94% 29.91 in 10.0 mi Calm Calm - N/A   Clear
1:55 AM 73.4 °F - 71.6 °F 94% 29.90 in 7.0 mi ENE 5.8 mph - N/A   Clear
2:15 AM 73.4 °F - 71.6 °F 94% 29.90 in 10.0 mi ENE 4.6 mph - N/A   Clear
2:35 AM 73.4 °F - 71.6 °F 94% 29.89 in 10.0 mi Calm Calm - N/A   Clear
2:55 AM 73.4 °F - 71.6 °F 94% 29.88 in 7.0 mi Calm Calm - N/A   Clear
3:15 AM 73.4 °F - 71.6 °F 94% 29.88 in 7.0 mi SSW 4.6 mph - N/A   Clear
3:35 AM 71.6 °F - 69.8 °F 94% 29.88 in 5.0 mi SSW 4.6 mph - N/A   Scattered Clouds
3:55 AM 71.6 °F - 69.8 °F 94% 29.88 in 1.5 mi SW 4.6 mph - N/A   Mostly Cloudy
4:15 AM 69.8 °F - 69.8 °F 100% 29.88 in 1.8 mi SW 4.6 mph - N/A   Overcast
4:35 AM 69.8 °F - 68.0 °F 94% 29.88 in 0.8 mi SSW 4.6 mph - N/A   Overcast
4:55 AM 69.8 °F - 68.0 °F 94% 29.87 in 0.8 mi SSW 3.5 mph - N/A   Overcast
5:15 AM 69.8 °F - 68.0 °F 94% 29.88 in 2.5 mi SSW 3.5 mph - N/A   Overcast
6:47 AM 68.0 °F - 68.0 °F 100% 29.90 in 4.0 mi Variable 3.5 mph - N/A   Scattered Clouds
7:47 AM 69.8 °F - 68.0 °F 94% 29.90 in 4.0 mi Calm Calm - N/A   Haze
8:47 AM 73.4 °F - 69.8 °F 88% 29.93 in 7.0 mi South 4.6 mph - N/A   Partly Cloudy
9:47 AM 78.8 °F - 71.6 °F 78% 29.93 in 7.0 mi South 8.1 mph - N/A   Scattered Clouds
12:47 PM 82.4 °F 84.6 °F 66.2 °F 58% 29.88 in 5.0 mi South 9.2 mph - N/A   Haze
1:55 PM 82.4 °F 86.3 °F 69.8 °F 66% 29.86 in 6.0 mi SE 13.8 mph - N/A   Haze
2:55 PM 82.4 °F 86.3 °F 69.8 °F 66% 29.84 in 6.0 mi SE 11.5 mph 16.1 mph N/A   Haze
3:47 PM 80.6 °F 84.6 °F 71.6 °F 74% 29.83 in 6.0 mi SSE 11.5 mph - N/A   Haze
4:13 PM 80.6 °F 84.6 °F 71.6 °F 74% 29.83 in 2.0 mi SSE 16.1 mph 27.6 mph N/A Rain Rain
4:55 PM 73.4 °F - 69.8 °F 88% 29.85 in 5.0 mi East 9.2 mph - N/A   Haze
5:47 PM 75.2 °F - 71.6 °F 89% 29.84 in 6.0 mi SE 4.6 mph - N/A   Haze
6:47 PM 75.2 °F - 71.6 °F 89% 29.84 in 7.0 mi SE 11.5 mph - N/A   Mostly Cloudy
7:15 PM 75.2 °F - 69.8 °F 83% 29.85 in 10.0 mi SSE 8.1 mph - N/A   Mostly Cloudy
7:35 PM 75.2 °F - 69.8 °F 83% 29.85 in 10.0 mi SSE 10.4 mph - N/A   Scattered Clouds
7:55 PM 75.2 °F - 69.8 °F 83% 29.85 in 10.0 mi SSE 10.4 mph - N/A   Scattered Clouds
8:15 PM 75.2 °F - 71.6 °F 89% 29.86 in 10.0 mi SSE 8.1 mph - N/A   Clear
8:35 PM 75.2 °F - 71.6 °F 89% 29.86 in 10.0 mi South 8.1 mph - N/A   Clear
8:55 PM 75.2 °F - 71.6 °F 89% 29.86 in 10.0 mi South 10.4 mph - N/A   Clear
9:15 PM 75.2 °F - 71.6 °F 89% 29.86 in 10.0 mi South 10.4 mph - N/A   Clear
9:35 PM 75.2 °F - 71.6 °F 89% 29.87 in 10.0 mi South 9.2 mph - N/A   Clear
9:55 PM 73.4 °F - 71.6 °F 94% 29.87 in 10.0 mi South 8.1 mph - N/A   Clear
10:15 PM 73.4 °F - 71.6 °F 94% 29.87 in 10.0 mi South 8.1 mph - N/A   Clear
10:35 PM 73.4 °F - 71.6 °F 94% 29.87 in 10.0 mi South 8.1 mph - N/A   Clear
10:55 PM 73.4 °F - 69.8 °F 88% 29.87 in 10.0 mi South 6.9 mph - N/A   Clear
11:15 PM 73.4 °F - 71.6 °F 94% 29.87 in 10.0 mi South 6.9 mph - N/A   Clear
11:35 PM 73.4 °F - 69.8 °F 88% 29.86 in 10.0 mi South 8.1 mph - N/A   Clear
11:55 PM 73.4 °F - 69.8 °F 88% 29.85 in 10.0 mi South 9.2 mph - N/A   Clear